This demonstration page uses our WeatherBlox Daily Observations layout. Learn more.

Left ArrowRight Arrow

36.17497, -115.13722

Hourly Observations for October 22, 2019

Temp ( °F °C ) Dew Point ( °F °C ) Humidity (%) Winds ( mph kmh ) Pressure ( in mb ) Visibility ( mi km ) Precip ( " mm )
12:53 am 00:53 Clear 62 16.7 24 -4.4 23 23 NW 5 7 30.22 1023 10 16.0934 N/A
1:53 am 01:53 Clear 63 17.2 22 -5.6 21 21 N 7 11 30.23 1024 10 16.0934 N/A
2:53 am 02:53 Clear 63 17.2 20 -6.7 19 19 WNW 9 15 30.23 1024 10 16.0934 N/A
3:53 am 03:53 Clear 59 15 23 -5 25 25 N N/A 30.23 1024 10 16.0934 N/A
4:53 am 04:53 Clear 60 15.6 23 -5 24 24 N N/A 30.24 1024 10 16.0934 N/A
5:53 am 05:53 Clear 61 16.1 22 -5.6 22 22 N N/A 30.25 1025 10 16.0934 N/A
6:53 am 06:53 Clear 59 15 24 -4.4 26 26 NW 5 7 30.26 1025 10 16.0934 N/A
7:53 am 07:53 Sunny 61 16.1 23 -5 23 23 NNW 8 13 30.28 1025 10 16.0934 N/A
8:53 am 08:53 Sunny 66 18.9 23 -5 19 19 N 3 6 30.29 1026 10 16.0934 N/A
9:53 am 09:53 Sunny 71 21.7 23 -5 16 16 NNE 5 7 30.27 1025 10 16.0934 N/A
10:53 am 10:53 Sunny 73 22.8 23 -5 15 15 E 5 7 30.26 1025 10 16.0934 N/A
11:53 am 11:53 Sunny 74 23.3 23 -5 15 15 S 6 9 30.24 1024 10 16.0934 N/A
12:53 pm 12:53 Sunny 77 25 23 -5 13 13 E 3 6 30.2 1023 10 16.0934 N/A
1:53 pm 13:53 Sunny 78 25.6 23 -5 13 13 N N/A 30.15 1021 10 16.0934 N/A
2:53 pm 14:53 Sunny 80 26.7 24 -4.4 13 13 N N/A 30.11 1020 10 16.0934 N/A
3:53 pm 15:53 Sunny 81 27.2 24 -4.4 12 12 E 3 6 30.1 1019 10 16.0934 N/A
4:53 pm 16:53 Sunny 81 27.2 24 -4.4 12 12 E 5 7 30.09 1019 10 16.0934 N/A
5:53 pm 17:53 Sunny 79 26.1 24 -4.4 13 13 ESE 3 6 30.08 1019 10 16.0934 N/A
6:53 pm 18:53 Clear 77 25 25 -3.9 14 14 N N/A 30.08 1019 10 16.0934 N/A
7:53 pm 19:53 Clear 71 21.7 30 -1.1 22 22 W 6 9 30.09 1019 10 16.0934 N/A
8:53 pm 20:53 Clear 67 19.4 30 -1.1 25 25 NW 5 7 30.08 1019 10 16.0934 N/A
9:53 pm 21:53 Clear 65 18.3 30 -1.1 27 27 N N/A 30.07 1018 10 16.0934 N/A
10:53 pm 22:53 Clear 67 19.4 29 -1.7 24 24 W 7 11 30.07 1018 10 16.0934 N/A
11:53 pm 23:53 Clear 63 17.2 29 -1.7 28 28 NW 5 7 30.06 1018 10 16.0934 N/A

Powered by AerisWeather